Regional Weather Roundup
Issued by NWS

Home | Current Version | Previous Version | Graphics & Text | Print | Product List | Glossary Off
Versions: 1 2 3 4 5 6 7 8 9 10 11 12 13 14 15 16 17 18 19 20 21 22 23 24 25 26 27 28 29 30 31 32 33 34 35 36 37 38 39 40 41 42 43 44 45 46 47 48 49 50

289
ASUS43 KLSX 230157
RWRMO

WEATHER SUMMARY FOR MISSOURI
NATIONAL WEATHER SERVICE SPRINGFIELD MO
900 PM CDT WED MAR 22 2017

NOTE: "FAIR" INDICATES FEW OR NO CLOUDS BELOW 12,000 FEET WITH NO
       SIGNIFICANT WEATHER AND/OR OBSTRUCTIONS TO VISIBILITY.
       CURRENT SKY AND/OR WEATHER CONDITIONS ARE NOT AVAILABLE FOR
       CHILLICOTHE AND FARMINGTON.

MOZ001>031-035>038-043-044-053-054-230300-
...NORTHERN AND WESTERN MISSOURI...

CITY           SKY/WX    TMP DP  RH WIND       PRES   REMARKS
KANSAS CTY INT CLOUDY    52  27  38 SE21      30.20F
LEE`S SUMMIT   CLOUDY    52  26  36 E12       30.22S
ST JOSEPH      CLOUDY    50  27  40 E17G23    30.21F
CHILLICOTHE      N/A     45  21  38 E10       30.28F

$$
MOZ066>068-077>081-088>096-101>105-230300-
...SOUTHWEST MISSOURI...

CITY           SKY/WX    TMP DP  RH WIND       PRES   REMARKS
SPRINGFIELD    CLOUDY    56  32  40 SE12      30.21R
JOPLIN         CLOUDY    55  38  52 SE9       30.18S
BRANSON        CLOUDY    52  32  46 SE13      30.23S

$$
MOZ032>034-039>042-045>050-055>058-069>072-230300-
...CENTRAL MISSOURI...

CITY           SKY/WX    TMP DP  RH WIND       PRES   REMARKS
COLUMBIA       NOT AVBL
JEFFERSON CITY PTCLDY    50  21  32 E10       30.31S
ROLLA          CLOUDY    46  22  38 E12       30.29S
SEDALIA        CLOUDY    51  23  33 E17G25    30.26S
WARRENSBURG    CLOUDY    50  25  37 E15       30.24S

$$
MOZ051-052-059>065-230300-
...EAST CENTRAL MISSOURI...

CITY           SKY/WX    TMP DP  RH WIND       PRES   REMARKS
ST LOUIS INTL  CLOUDY    47  17  30 E13       30.37S

$$
MOZ072>076-082>087-097>100-106>115-230300-
...SOUTH CENTRAL AND SOUTHEAST MISSOURI...

CITY           SKY/WX    TMP DP  RH WIND       PRES   REMARKS
CAPE GIRARDEAU CLEAR     47  25  42 NE12      30.34S
POPLAR BLUFF   CLEAR     49  32  52 NE7       30.32S
WEST PLAINS    CLOUDY    53  29  39 SE8       30.28R

$$



USA.gov is the U.S. government's official web portal to all federal, state and local government web resources and services.